#timestamp,LO_Frequency,Hit,StdDev 
1581329615.7,286046991.0,P
1581329635.5,286046990.1,P
1581329655.4,286046990.6,P
1581329675.2,286046991.1,Y
1581329695.0,286047001.1,P
1581329695.9,286047001.1,N
1581329715.8,286046998.1,N
1581329735.6,286047000.8,N
1581329755.4,286046998.7,N
1581329775.3,286046999.2,N
1581329795.1,286046999.3,N
1581329815.9,286046999.5,N
1581329835.7,286046999.3,N
1581329855.5,286046996.5,N
1581329875.4,286046997.3,N
1581329895.2,286046997.5,N
1581329915.0,286046997.8,N
1581329915.9,286046997.8,N
1581329935.8,286046997.6,N
1581329955.6,286046998.0,N
1581329975.5,286046995.3,N
1581329995.3,286046995.1,N
1581330015.1,286046998.0,N
1581330035.9,286046995.1,N
1581330055.7,286046996.2,N
1581330075.5,286046993.6,N
1581330095.4,286046994.1,N
1581330115.2,286046994.8,N
1581330135.1,286046992.5,Y
1581330136.0,286046992.5,P
1581330155.8,286046995.9,N
1581330175.6,286046996.3,N
1581330195.5,286046994.2,Y
1581330215.3,286046998.8,P
1581330235.2,286046999.0,N
1581330255.9,286046996.5,N
1581330275.7,286046996.8,N
1581330295.6,286046994.9,Y
1581330315.4,286046998.8,P
1581330335.2,286046998.9,N
1581330355.1,286046999.5,N
1581330356.0,286046999.5,N
1581330375.8,286046999.2,N
1581330395.7,286046998.7,N
1581330415.5,286046996.5,Y
1581330435.3,286047000.6,P
1581330455.2,286046999.2,N
1581330475.0,286046996.9,P
1581330475.9,286046996.9,N
1581330495.7,286046998.0,N
1581330515.6,286046995.3,Y
1581330535.4,286046999.5,P
1581330555.3,286046996.8,P
1581330575.1,286046996.8,N
1581330595.8,286046997.9,N
1581330615.7,286046995.1,Y
1581330635.5,286046997.3,P
1581330655.4,286046997.9,P
1581330675.2,286046995.2,P
1581330695.0,286046995.2,Y
1581330695.9,286046995.2,P
1581330715.8,286046998.3,N
1581330735.6,286046998.7,N
1581330755.4,286046999.0,N
1581330775.3,286046996.8,N
1581330795.1,286046997.7,N
1581330815.9,286046995.2,Y
1581330835.7,286046999.5,P
1581330855.5,286046997.2,N
1581330875.4,286046997.8,N
1581330895.2,286046995.0,Y
1581330915.0,286046996.8,P
1581330916.0,286046996.8,P
1581330935.8,286046997.5,P
1581330955.6,286046997.4,Y
1581330975.5,286046998.4,P
1581330995.3,286046999.4,N
1581331015.1,286046999.6,N
1581331035.9,286046997.7,N
1581331055.7,286046997.8,N
1581331075.6,286046995.4,Y
1581331095.4,286046997.0,P
1581331115.2,286046997.4,P
1581331135.1,286046996.7,P
1581331136.0,286046996.7,Y
1581331155.8,286047000.7,P
1581331175.6,286046998.1,N
1581331195.5,286046999.0,N
1581331215.3,286046998.6,N
1581331235.2,286046999.0,N
1581331255.9,286046996.8,Y
1581331275.7,286047000.9,P
1581331295.6,286047000.8,N
1581331315.4,286047000.7,N
1581331335.2,286047000.0,N
1581331355.1,286046998.8,N
1581331356.0,286046998.8,N
1581331375.8,286046999.4,N
1581331395.7,286046996.6,Y
1581331415.5,286046996.5,P
1581331435.3,286046995.6,N
1581331455.2,286046996.3,N
1581331475.0,286046994.2,Y
1581331475.9,286046994.2,P
1581331495.8,286046996.7,N
1581331515.6,286046999.4,N
1581331535.4,286046998.3,N
1581331555.3,286046997.5,N
1581331575.1,286046997.7,N
1581331595.8,286046997.1,N
1581331615.7,286046997.4,N
1581331635.5,286046994.9,Y
1581331655.4,286046999.3,P
1581331675.2,286046999.4,N
1581331695.0,286046999.0,N
1581331695.9,286046999.0,N
1581331715.8,286046999.6,N
1581331735.6,286046996.6,Y
1581331755.4,286046999.2,P
1581331775.3,286046999.1,P
1581331795.1,286046996.9,P
1581331815.9,286046997.1,Y
1581331835.7,286046999.6,P
1581331855.5,286046998.9,N
1581331875.4,286046998.8,N
1581331895.2,286046996.6,Y
1581331915.0,286046999.2,P
1581331915.9,286046999.2,P
1581331935.8,286046998.8,P
1581331955.6,286046999.5,Y
1581331975.5,286046999.0,P
1581331995.3,286046997.7,P
1581332015.1,286046997.5,P
1581332035.9,286046996.7,Y
1581332055.7,286046999.2,P
1581332075.6,286046999.1,N
1581332095.4,286046998.3,P
1581332115.2,286046998.4,Y
1581332135.1,286047000.7,P
1581332136.0,286047000.7,N
1581332155.8,286047001.0,N
1581332175.6,286047000.0,N
1581332195.5,286047000.5,N
1581332215.3,286047000.3,N
1581332235.2,286047000.6,N
1581332255.9,286047000.4,N
1581332275.7,286047000.6,N
1581332295.6,286047000.3,N
1581332315.4,286047000.2,N
1581332335.2,286047002.0,Y
1581332355